Regional Weather Roundup
Issued by NWS

Home | Current Version | Previous Version | Graphics & Text | Print | Product List | Glossary On
Versions: 1 2 3 4 5 6 7 8 9 10 11 12 13 14 15 16 17 18 19 20 21 22 23 24 25 26 27 28 29 30 31 32 33 34 35 36 37 38 39 40 41 42 43 44 45 46 47 48 49 50
000
ASUS43 KIND 281959
RWRIN

WEATHER ROUNDUP FOR INDIANA
NATIONAL WEATHER SERVICE INDIANAPOLIS IN
400 PM EDT THU JUL 28 2016

NOTE: "FAIR" INDICATES FEW OR NO CLOUDS BELOW 12,000 FEET WITH NO
SIGNIFICANT WEATHER AND/OR OBSTRUCTIONS TO VISIBILITY.

* - STATION DOES NOT REPORT WEATHER SUCH AS PRECIPITATION OR FOG.

+ - STATION NOT QUALITY CONTROLLED BY THE NATIONAL WEATHER SERVICE.
    USE DATA WITH CAUTION...ESPECIALLY DEWPOINT AND RELATIVE
    HUMIDITY OBSERVATIONS.

INZ001>003-010>013-019-020-282100-
NORTHWEST INDIANA

CITY           SKY/WX    TMP DP  RH WIND       PRES   REMARKS
GARY /AIRPORT/ PTSUNNY   75  72  88 SW12      29.90R
KNOX *+        SUNNY     84  52  32 CALM      29.87S
MONTICELLO +   PTSUNNY   84  65  51 CALM      29.87S
VALPARAISO     PTSUNNY   84  66  54 VRB5      29.88S

$$

LMZ046-743>745-282100-
SOUTHERN LAKE MICHIGAN

STATION/POSITION TIME  TEMP    WIND        PRES    WAVE
                       AIR SEA DIR/SP/G            HT
                 (UTC) (F)     (DEG/KT/KT) (MB)    (FT)
BURNS HARBOR     1900   80      40/  8/  9 1011.9F
MICHIGAN CITY    1900   79     340/  9/  9   N/A
5NW MICH CITY    1900   79 79   10/  8/  8   N/A     0

$$

INZ004-005-014>016-021>024-282100-
NORTH CENTRAL INDIANA

CITY           SKY/WX    TMP DP  RH WIND       PRES   REMARKS
GOSHEN         MOSUNNY   87  64  46 E9        29.87F
SOUTH BEND       N/A    N/A N/A N/A MISG      29.88F

$$

INZ006>009-017-018-025>027-282100-
NORTHEAST INDIANA

CITY           SKY/WX    TMP DP  RH WIND       PRES   REMARKS
ANGOLA *+        N/A     82  77  83 NE7       29.90S
FORT WAYNE     CLOUDY    86  64  47 E5        29.87F

$$

INZ028-029-035-036-043>045-051>053-282100-
WEST CENTRAL INDIANA

CITY           SKY/WX    TMP DP  RH WIND       PRES   REMARKS
CRAWFORDSVL +  MOSUNNY   82  70  66 CALM      29.88F
LAFAYETTE      SUNNY     85  69  58 W3        29.86F
TERRE HAUTE    MOSUNNY   86  69  56 CALM      29.87S

$$

INZ030>032-037>040-046>048-054>057-064-065-282100-
CENTRAL INDIANA

CITY           SKY/WX    TMP DP  RH WIND       PRES   REMARKS
ANDERSON       MOSUNNY   84  66  54 CALM      29.89F
COLUMBUS       SUNNY     82  73  74 MISG      29.87F
INDIANAPOLIS   CLOUDY    86  67  52 VRB5      29.87F
-EAGLE CREEK   CLOUDY    86  68  54 N6        29.86F
KOKOMO *+      MOSUNNY   88  66  48 N6        29.87F
SHELBYVILLE    CLOUDY    85  71  63 SE3       29.87F

$$

INZ033-034-041-042-049-050-058-059-282100-
EAST CENTRAL INDIANA

CITY           SKY/WX    TMP DP  RH WIND       PRES   REMARKS
MUNCIE         CLOUDY    86  66  51 VRB3      29.88S

$$

INZ060-061-067>069-081>083-085>088-282100-
SOUTHWEST INDIANA

CITY           SKY/WX    TMP DP  RH WIND       PRES   REMARKS
EVANSVILLE     PTSUNNY   84  74  71 SW6       29.86F
HUNTINGBURG *+ MOSUNNY   82  73  74 SW10      29.87F

$$

INZ062-063-066-070>080-084-089>092-282100-
SOUTH CENTRAL AND SOUTHEAST INDIANA

CITY           SKY/WX    TMP DP  RH WIND       PRES   REMARKS
BLOOMINGTON    CLOUDY    81  69  67 E8        29.88S
MADISON *+     CLOUDY    82  70  65 NW3       29.90F
SEYMOUR +      PTSUNNY   84  72  65 CALM      29.87F

$$




USA.gov is the U.S. government's official web portal to all federal, state and local government web resources and services.